[[{"header":{"parameterUnit":"m.s-1","parameterCategory":1,"la1":30.2991,"la2":30.254,"lo1":-89.0895,"lo2":-89.0444,"dy":0.0017,"dx":0.0017,"nx":28,"ny":28,"refTime":"2024-11-22T09:00:00:Z","depth":0,"parameterNumber":2,"parameterNumberName":"U-component_of_WINDS"},"data":[0,0,0,0,0,0,0,0,0,0,0,0,0,0,0,0,0,0,0,0,0,0,0,0,0,0,0,0,0,0,0,0,0,0,0,0,0,0,0,0,0,0,0,0,0,0,0,0,0,0,0,0,0,0,0,0,0,0,0.9075,0.9075,0,0.9079,0.9079,0.9079,0.9055,0.9055,0.9054,0.9053,0.9056,0.9057,0.9058,0,0,0,0,0,0,0,0,0,0,0,0,0,0.9045,0.9046,0.9075,0.9075,0.9075,0.9079,0.9079,0.9079,0.9056,0.9055,0.9054,0.9053,0.9056,0.9057,0.9058,0,0,0,0,0,0,0,0,0,0,0,0,0,0.9054,0.9046,0.9075,0.9064,0.9063,0.9079,0.9079,0.9079,0.9056,0.9055,0.9054,0.9053,0.9056,0.9057,0.9058,0.9085,0,0,0.9061,0.9062,0,0,0,0,0,0,0,0,0.9054,0.9056,0.9066,0.9065,0.9064,0.9066,0.907,0.9081,0.9056,0.9058,0.9053,0.9052,0.906,0.9061,0.9064,0.9085,0.9085,0.9061,0.9062,0.9062,0.9063,0,0,0,0,0,0,0,0.9053,0.9055,0.9077,0.9066,0.9065,0.9058,0.9058,0.9072,0.9065,0.9058,0.9056,0.9057,0.906,0.9063,0.9064,0.9085,0.9061,0.9062,0.9063,0.9063,0.9127,0.9128,0,0,0,0,0,0,0.9054,0.9055,0.9077,0.9077,0.9056,0.9059,0.906,0.9066,0.9065,0.9064,0.9058,0.9056,0.9062,0.9063,0.9064,0.9093,0.9062,0.9063,0.9064,0.9125,0.9127,0.9128,0,0,0,0,0,0,0.9054,0.9057,0.9077,0.9065,0.9068,0.9061,0.9069,0.9067,0.907,0.9065,0.9063,0.9063,0.9061,0.9062,0.9079,0.9093,0.9064,0.9065,0.9124,0.9126,0.9127,0.9154,0,0,0,0,0,0,0.9053,0.9057,0.9067,0.9066,0.9068,0.9093,0.9069,0.9068,0.9072,0.907,0.9069,0.9068,0.906,0.9078,0.9081,0.9094,0.9066,0.9123,0.9125,0.9127,0.9152,0.9156,0.916,0,0,0,0,0,0.9052,0.9075,0.9068,0.9071,0.9082,0.9094,0.9095,0.9086,0.9073,0.9083,0.908,0.9068,0.9092,0.908,0.9083,0.9097,0.9122,0.9124,0.9127,0.915,0.9155,0.916,0,0,0,0,0,0,0.9078,0.9075,0.9067,0.909,0.9092,0.909,0.9102,0.9092,0.9098,0.9095,0.9084,0.9084,0.9102,0.9102,0.9089,0.9122,0.9105,0.9108,0.9121,0.9126,0.9131,0.913,0.9067,0,0,0,0,0,0.9087,0.9097,0.9094,0.9114,0.9116,0.9109,0.9114,0.9107,0.9109,0.9109,0.9107,0.9109,0.9116,0.9122,0.9129,0.9152,0.9151,0.9163,0.9167,0.9171,0.9173,0.9183,0.9188,0.9136,0.9135,0.9135,0,0,0.9104,0.9104,0.9111,0.9119,0.912,0.913,0.911,0.9122,0.9129,0.9111,0.9126,0.9125,0.9126,0.9146,0.9155,0.9146,0.9187,0.9174,0.9176,0.9177,0.9186,0.9191,0.9195,0.9137,0.9137,0.9137,0,0,0.9141,0.9142,0.9159,0.916,0.9161,0.9157,0.9161,0.9159,0.9157,0.9173,0.9159,0.9167,0.9181,0.9182,0.9184,0.922,0.9208,0.9223,0.9243,0.9254,0.9258,0.9261,0.9272,0.9276,0.9225,0.9225,0.9225,0,0.9162,0.9178,0.9168,0.9181,0.9184,0.9168,0.9184,0.9186,0.9189,0.9192,0.9182,0.9198,0.9198,0.9217,0.9225,0.9228,0.9231,0.9222,0.9258,0.9261,0.9265,0.9275,0.9279,0.9227,0.9226,0.9226,0.9226,0,0.9203,0.9213,0.9226,0.923,0.9235,0.9249,0.9241,0.9247,0.924,0.9235,0.925,0.925,0.9255,0.9259,0.9253,0.9277,0.9271,0.926,0.9242,0.9271,0.928,0.9284,0.9229,0.9228,0.9228,0.9227,0,0,0.9255,0.9253,0.9258,0.9258,0.9258,0.9266,0.9279,0.9285,0.9289,0.9292,0.9301,0.9313,0.9303,0.9305,0.9298,0.9307,0.9333,0.9295,0.9294,0.93,0.9357,0.9364,0.9369,0.9326,0.9327,0.9327,0.9357,0,0.9289,0.9311,0.9303,0.9325,0.9334,0.9318,0.9329,0.933,0.9326,0.9333,0.9329,0.9336,0.9323,0.9324,0.9332,0.9328,0.9344,0.9326,0.9333,0.9333,0.9331,0.9374,0.9382,0.941,0.936,0.9361,0.9361,0,0.9332,0.9336,0.9359,0.9356,0.9359,0.9369,0.9373,0.9379,0.938,0.9376,0.9379,0.9369,0.938,0.9364,0.9378,0.9366,0.9369,0.9367,0.9368,0.9367,0.9348,0.9372,0.9419,0.9422,0.9367,0.9367,0.9367,0,0.9365,0.9377,0.9391,0.9393,0.939,0.9397,0.9396,0.9396,0.9399,0.9402,0.9403,0.9408,0.941,0.9413,0.9405,0.9394,0.942,0.9403,0.9416,0.9416,0.9421,0.942,0.9466,0.9426,0.9426,0.9426,0.9426,0,0.9403,0.9417,0.9406,0.9415,0.943,0.942,0.9434,0.9432,0.9431,0.9438,0.9426,0.9433,0.9422,0.9428,0.9422,0.9433,0.9435,0.9432,0.9429,0.9432,0.9432,0.9432,0.9429,0.9427,0.9426,0.9426,0.9426,0,0.9442,0.9436,0.945,0.9446,0.9446,0.9457,0.9453,0.946,0.9456,0.9465,0.9467,0.9459,0.9465,0.9457,0.9463,0.9458,0.9474,0.947,0.9474,0.9472,0.9484,0.9483,0.953,0.9535,0.9494,0.9494,0.9494,0,0.9466,0.9476,0.9473,0.9477,0.9477,0.9484,0.9487,0.9477,0.9481,0.9481,0.9488,0.9493,0.9496,0.9506,0.9501,0.9505,0.9499,0.9516,0.95,0.9501,0.9497,0.9496,0.9496,0.9518,0.9519,0.9519,0.952,0,0.9508,0.9504,0.9509,0.9512,0.9516,0.9518,0.952,0.9523,0.9513,0.9518,0.9524,0.9526,0.9531,0.9535,0.9538,0.9536,0.9526,0.9525,0.9528,0.9529,0.953,0.9528,0.9481,0.9524,0.9523,0.9523,0.9523,0.9523,0.9539,0.9546,0.9545,0.955,0.955,0.9551,0.9557,0.9553,0.9558,0.9561,0.9555,0.9562,0.9561,0.9563,0.9562,0.9567,0.956,0.9564,0.9565,0.9566,0.9567,0.9531,0.9567,0.9567,0.9567,0.9567,0.9567,0,0.9578,0.9576,0.9581,0.9583,0.9587,0.9577,0.9578,0.9582,0.9588,0.9588,0.9591,0.9597,0.9601,0.9596,0.9599,0.9603,0.9598,0.9604,0.9603,0.9602,0.9574,0.957,0.9608,0.9608,0.9608,0.9608,0.9608,0.9608,0.9599,0.961,0.9606,0.9617,0.9615,0.9621,0.9622,0.9623,0.9622,0.9629,0.9633,0.9629,0.9627,0.9629,0.9632,0.963,0.9631,0.9638,0.9635,0.9608,0.9604,0.96,0.9597,0.9639,0.9639,0.9662,0.9662,0.9662]},{"header":{"parameterUnit":"m.s-1","parameterCategory":1,"la1":30.2991,"la2":30.254,"lo1":-89.0895,"lo2":-89.0444,"dy":0.0017,"dx":0.0017,"nx":28,"ny":28,"refTime":"2024-11-22T09:00:00:Z","depth":0,"parameterNumber":3,"parameterNumberName":"V-component_of_WINDS"},"data":[0,0,0,0,0,0,0,0,0,0,0,0,0,0,0,0,0,0,0,0,0,0,0,0,0,0,0,0,0,0,0,0,0,0,0,0,0,0,0,0,0,0,0,0,0,0,0,0,0,0,0,0,0,0,0,0,0,0,2.7407,2.7407,0,2.7416,2.7416,2.7416,2.7363,2.7362,2.736,2.7359,2.7369,2.737,2.7372,0,0,0,0,0,0,0,0,0,0,0,0,0,2.7341,2.7343,2.7407,2.7407,2.7407,2.7416,2.7416,2.7416,2.7363,2.7362,2.736,2.7358,2.7368,2.737,2.7372,0,0,0,0,0,0,0,0,0,0,0,0,0,2.7362,2.7343,2.7407,2.7382,2.7379,2.7416,2.7416,2.7416,2.7364,2.7362,2.7359,2.7357,2.7367,2.737,2.7372,2.7434,0,0,2.738,2.7381,0,0,0,0,0,0,0,0,2.7361,2.7365,2.7385,2.7383,2.7381,2.7386,2.7397,2.7422,2.7364,2.737,2.7359,2.7356,2.7376,2.7378,2.7385,2.7434,2.7435,2.738,2.7382,2.7383,2.7384,0,0,0,0,0,0,0,2.736,2.7364,2.741,2.7385,2.7383,2.7369,2.737,2.7401,2.7386,2.7369,2.7365,2.7367,2.7375,2.7383,2.7385,2.7435,2.738,2.7383,2.7384,2.7385,2.7532,2.7534,0,0,0,0,0,0,2.7362,2.7363,2.741,2.7411,2.7365,2.7372,2.7373,2.7387,2.7385,2.7383,2.7369,2.7365,2.7379,2.7382,2.7385,2.7454,2.7383,2.7385,2.7387,2.753,2.7533,2.7535,0,0,0,0,0,0,2.736,2.7366,2.741,2.7386,2.739,2.7376,2.7392,2.7388,2.7396,2.7385,2.7382,2.738,2.7378,2.7381,2.7421,2.7454,2.7386,2.7389,2.7527,2.7531,2.7534,2.7595,0,0,0,0,0,0,2.7359,2.7366,2.739,2.7387,2.7392,2.7447,2.7394,2.739,2.74,2.7395,2.7395,2.7392,2.7376,2.7418,2.7424,2.7456,2.7391,2.7524,2.7528,2.7533,2.759,2.76,2.7609,0,0,0,0,0,2.7357,2.7407,2.7391,2.7397,2.7421,2.7449,2.7451,2.7432,2.7403,2.7426,2.7419,2.7392,2.745,2.7422,2.7429,2.7462,2.7522,2.7527,2.7532,2.7586,2.7598,2.7609,0,0,0,0,0,0,2.7415,2.7407,2.7389,2.744,2.7445,2.744,2.7468,2.7446,2.746,2.7454,2.7429,2.7429,2.7473,2.7472,2.7442,2.752,2.7481,2.7487,2.7519,2.7531,2.754,2.7539,2.7393,0,0,0,0,0,2.7434,2.7457,2.7449,2.7495,2.7498,2.7483,2.7494,2.7478,2.7483,2.7485,2.7481,2.7486,2.7505,2.7518,2.7535,2.759,2.7588,2.7616,2.7626,2.7633,2.7639,2.7665,2.7677,2.7553,2.7553,2.7553,0,0,2.7473,2.7471,2.7488,2.7506,2.7509,2.7532,2.7485,2.7513,2.753,2.7489,2.7526,2.7523,2.7528,2.7574,2.7595,2.7575,2.7673,2.764,2.7647,2.7648,2.7672,2.7684,2.7694,2.7556,2.7556,2.7555,0,0,2.7556,2.7559,2.7595,2.7598,2.7602,2.7591,2.76,2.7598,2.7594,2.763,2.7599,2.762,2.7654,2.7657,2.7663,2.7746,2.7721,2.7752,2.7801,2.7827,2.7837,2.7845,2.7873,2.7883,2.7758,2.7758,2.7759,0,2.7605,2.7639,2.7618,2.7647,2.7655,2.7618,2.7655,2.7659,2.7669,2.7675,2.7652,2.7692,2.7693,2.7739,2.7758,2.7766,2.7774,2.7751,2.7837,2.7846,2.7853,2.7879,2.7889,2.7762,2.7762,2.7761,2.7761,0,2.7697,2.7722,2.7751,2.776,2.7772,2.7805,2.7787,2.7801,2.7784,2.7776,2.7812,2.7812,2.7826,2.7837,2.7821,2.788,2.7867,2.7842,2.7801,2.7869,2.7892,2.7902,2.7767,2.7766,2.7765,2.7764,0,0,2.7817,2.7812,2.7823,2.7826,2.7826,2.7845,2.7875,2.7889,2.7901,2.7909,2.7933,2.7962,2.7937,2.7944,2.7929,2.7952,2.8014,2.7923,2.7923,2.7938,2.8076,2.8094,2.8106,2.7998,2.8,2.8002,2.8075,0,2.7897,2.7948,2.7928,2.7981,2.8002,2.7967,2.7994,2.7997,2.7989,2.8006,2.7998,2.8017,2.7985,2.7989,2.801,2.8002,2.8041,2.7997,2.8019,2.802,2.8017,2.8118,2.8138,2.8207,2.8084,2.8086,2.8087,0,2.7996,2.8006,2.806,2.8055,2.8063,2.8087,2.8097,2.8114,2.8116,2.8109,2.8116,2.8095,2.8123,2.8084,2.8123,2.8093,2.8101,2.8098,2.81,2.81,2.8056,2.8119,2.8229,2.8238,2.8102,2.8101,2.81,0,2.8075,2.8102,2.8137,2.8141,2.8136,2.8154,2.8153,2.8152,2.8161,2.8171,2.8176,2.8189,2.8195,2.8206,2.8188,2.8162,2.8228,2.8188,2.8221,2.8222,2.8236,2.8235,2.8346,2.8245,2.8245,2.8244,2.8244,0,2.8164,2.8198,2.8172,2.8194,2.823,2.8207,2.8244,2.8239,2.8239,2.8259,2.823,2.8249,2.8226,2.8242,2.8229,2.8261,2.8265,2.8259,2.8255,2.826,2.8261,2.8264,2.8258,2.8247,2.8246,2.8246,2.8245,0,2.8257,2.8242,2.8278,2.827,2.8269,2.8296,2.8289,2.8308,2.8298,2.8323,2.8328,2.8313,2.833,2.8314,2.8331,2.8322,2.8365,2.8355,2.8364,2.836,2.8393,2.839,2.8509,2.8523,2.8415,2.8416,2.8417,0,2.8314,2.8339,2.8334,2.8344,2.8344,2.8362,2.8371,2.8349,2.8359,2.8362,2.8381,2.8396,2.8406,2.8436,2.8427,2.8439,2.8428,2.8469,2.8429,2.8434,2.8425,2.8423,2.8425,2.8476,2.8478,2.8479,2.8479,0,2.8416,2.8406,2.8419,2.8429,2.844,2.8447,2.8452,2.8463,2.844,2.8453,2.847,2.8478,2.8495,2.851,2.8519,2.8518,2.8494,2.8492,2.85,2.8505,2.8508,2.8504,2.8383,2.8489,2.8488,2.8487,2.8487,2.8487,2.8491,2.851,2.8509,2.8524,2.8525,2.853,2.8546,2.8538,2.8552,2.8563,2.855,2.857,2.857,2.858,2.8582,2.8597,2.858,2.8592,2.8595,2.8597,2.8601,2.8508,2.8599,2.8599,2.8598,2.8598,2.8598,0,2.8589,2.8585,2.86,2.8606,2.8618,2.8595,2.8599,2.861,2.8628,2.863,2.864,2.8659,2.8673,2.8664,2.8676,2.869,2.8679,2.8693,2.8691,2.8691,2.8617,2.8608,2.8701,2.8701,2.8701,2.8701,2.8701,2.8701,2.8641,2.8671,2.8662,2.8692,2.8689,2.8708,2.8712,2.8716,2.8717,2.8739,2.875,2.8744,2.8741,2.8752,2.8763,2.876,2.8765,2.8782,2.8775,2.8706,2.8696,2.8686,2.8677,2.8784,2.8784,2.8847,2.8848,2.8848]}]]